Location: Frydek-Mistek
(49.6830°N, 18.3330°E)
Time: 04:15:54
(UTC+01:00)

ISS - Visible Passes

Search period start: 22 March 2023 00:00
Search period end: 01 April 2023 01:00
Orbit: 414 x 423 km, 51.6° (Epoch: 22 March)

Date Brightness Start Highest point End Pass type
(mag) Time Alt. Az. Time Alt. Az. Time Alt. Az.
22 Mar -3.8 18:41:46 10° WSW 18:45:07 89° S 18:48:29 10° ENE visible
22 Mar -3.1 20:18:44 10° W 20:21:37 53° NW 20:21:37 53° NW visible
23 Mar -3.4 19:30:51 10° W 19:34:11 60° N 19:35:46 27° ENE visible
23 Mar -1.0 21:07:46 10° WNW 21:08:43 18° WNW 21:08:43 18° WNW visible
24 Mar -3.5 18:42:56 10° W 18:46:16 65° N 18:49:36 10° ENE visible
24 Mar -3.3 20:19:54 10° WNW 20:22:47 59° NW 20:22:47 59° NW visible
25 Mar -3.5 19:31:59 10° WNW 19:35:19 63° N 19:36:50 29° E visible
25 Mar -1.0 21:08:50 10° WNW 21:09:46 17° W 21:09:46 17° W visible
26 Mar -3.4 19:44:02 10° W 19:47:21 59° N 19:50:41 10° E visible
26 Mar -3.4 21:20:53 10° WNW 21:23:46 60° W 21:23:46 60° W visible
27 Mar -3.8 20:32:57 10° WNW 20:36:18 86° N 20:37:45 31° ESE visible
27 Mar -0.9 22:09:58 10° W 22:10:41 14° W 22:10:41 14° W visible
28 Mar -3.6 19:44:58 10° WNW 19:48:19 71° NNE 19:51:40 10° E visible
28 Mar -2.7 21:21:50 10° W 21:24:40 37° SW 21:24:40 37° SW visible
29 Mar -3.4 20:33:46 10° WNW 20:37:04 55° SSW 20:38:39 26° SE visible
30 Mar -3.7 19:45:43 10° WNW 19:49:04 76° SSW 19:52:24 10° ESE visible
30 Mar -1.7 21:23:02 10° W 21:25:26 19° SW 21:25:34 18° SW visible
31 Mar -2.2 20:34:39 10° W 20:37:33 27° SW 20:39:36 15° SSE visible
